Temp
72 72 71 72 72 73 73 73 73 73 73 74 75 75 75 74 79 78 80 81 81 78 77 77 78 77 77 76 76 76 76 76 76
70 70 70 70 71 71 72 72 72 72 72 72 73 72 71 76 79 79 78 78 80 80 78 77 77 77 77 77 76 76 76 76 76
68 68 69 69 70 70 70 70 71 71 71 71 71 71 69 75 79 79 79 79 79 79 78 77 77 77 77 77 76 76 76 76 76
67 67 67 68 68 68 69 69 69 70 70 70 69 69 68 71 79 81 79 76 79 78 77 77 77 77 77 77 76 76 76 76 76
66 67 66 66 66 67 67 67 68 68 68 68 68 67 67 74 77 81 82 77 78 78 77 76 77 77 77 76 76 76 76 76 76
72 64 64 64 65 66 66 67 67 66 66 67 68 66 74 78 80 81 75 76 78 77 77 76 76 76 76 76 75 75 75 75 75
70 67 64 65 66 67 68 69 68 68 75 75 69 76 77 77 77 79 74 74 75 75 75 74 75 75 75 76 75 75 75 75 75
74 73 73 73 69 73 73 73 74 73 73 73 75 75 75 76 76 76 72 73 74 74 73 73 74 74 74 74 75 74 74 74 75
72 73 72 72 72 72 72 72 73 72 73 73 73 74 74 75 75 75 69 71 72 72 72 72 73 74 74 74 74 73 73 74 74
70 71 72 71 71 71 70 71 71 70 69 69 69 71 72 73 74 74 68 69 70 71 71 71 72 73 73 74 73 72 73 73 74
68 69 70 70 70 69 70 69 69 70 70 70 71 72 73 73 73 73 73 68 69 70 71 71 71 72 72 73 74 73 72 73 74
68 68 69 69 69 69 70 70 70 70 71 71 72 73 73 72 73 73 73 72 68 68 70 70 70 70 71 72 74 74 71 69 73
68 68 68 68 68 68 68 68 67 68 69 69 70 71 72 72 73 73 73 72 72 70 69 69 70 70 71 72 72 72 72 68 69
67 67 68 68 67 67 67 67 66 65 66 67 68 70 70 71 73 72 71 69 69 70 69 66 66 67 69 70 72 73 72 68 66
67 67 67 67 65 66 65 64 65 65 66 65 66 66 70 70 71 70 69 67 67 67 68 68 69 65 67 69 71 71 71 66 65
66 66 66 66 65 64 65 64 62 63 65 62 62 66 70 69 69 68 66 64 63 62 62 63 63 65 64 66 67 68 67 67 66
65 65 64 65 63 64 64 62 60 61 64 59 57 56 62 66 67 67 66 64 62 60 60 60 60 61 63 62 63 67 68 68 68
64 63 63 63 63 61 62 61 59 56 60 62 56 52 51 55 65 65 66 66 63 62 58 59 58 59 59 61 62 63 65 68 69
63 62 62 62 62 61 61 62 59 58 55 59 62 61 57 51 50 61 63 66 64 64 61 59 57 56 57 59 58 61 63 66 68
63 62 61 61 61 61 60 59 59 59 57 57 57 58 59 59 51 50 56 63 65 64 62 63 59 56 56 57 58 60 65 68 68
MSLP
1015.68 1015.54 1015.39 1015.14 1014.93 1014.75 1014.57 1014.39 1014.17 1014.00 1013.88 1013.69 1013.48 1013.37 1013.33 1013.40 1013.09 1012.92 1012.76 1012.68 1012.81 1013.12 1013.34 1013.48 1013.51 1013.68 1013.84 1014.08 1014.23 1014.42 1014.59 1014.76 1014.89
1015.84 1015.74 1015.54 1015.31 1015.08 1014.87 1014.69 1014.52 1014.31 1014.17 1014.04 1013.87 1013.71 1013.56 1013.45 1013.17 1012.63 1012.39 1012.34 1012.54 1012.61 1012.85 1013.14 1013.27 1013.35 1013.45 1013.59 1013.74 1013.92 1014.13 1014.38 1014.59 1014.71
1016.03 1015.84 1015.63 1015.42 1015.19 1015.01 1014.84 1014.62 1014.40 1014.20 1014.02 1013.91 1013.80 1013.68 1013.59 1013.03 1012.33 1012.10 1011.89 1011.82 1012.21 1012.47 1012.80 1012.98 1013.06 1013.16 1013.29 1013.47 1013.65 1013.80 1013.98 1014.21 1014.46
1016.22 1015.95 1015.79 1015.58 1015.35 1015.16 1014.96 1014.72 1014.47 1014.29 1014.06 1013.91 1013.84 1013.71 1013.61 1013.35 1012.35 1011.76 1011.68 1011.71 1011.86 1012.11 1012.40 1012.64 1012.72 1012.77 1012.84 1012.97 1013.16 1013.40 1013.60 1013.77 1013.97
1016.03 1015.90 1015.84 1015.75 1015.48 1015.26 1015.02 1014.77 1014.50 1014.31 1014.02 1013.80 1013.69 1013.56 1013.39 1012.80 1012.10 1011.53 1011.19 1011.54 1011.68 1011.70 1011.96 1012.21 1012.29 1012.34 1012.42 1012.50 1012.67 1012.86 1013.15 1013.44 1013.62
1015.78 1015.96 1015.93 1015.72 1015.44 1015.20 1014.96 1014.69 1014.35 1014.11 1013.61 1013.35 1013.30 1013.20 1012.57 1011.97 1011.49 1011.24 1011.23 1011.27 1011.33 1011.45 1011.49 1011.64 1011.66 1011.71 1011.77 1011.95 1012.21 1012.38 1012.56 1012.89 1013.22
1015.96 1015.71 1015.57 1015.36 1015.15 1014.71 1014.52 1014.26 1013.95 1013.77 1013.06 1012.80 1012.91 1012.40 1012.06 1011.90 1011.67 1011.42 1011.36 1011.51 1011.61 1011.60 1011.47 1011.41 1011.33 1011.30 1011.42 1011.35 1011.52 1011.81 1012.10 1012.28 1012.63
1015.43 1015.18 1015.08 1014.89 1014.77 1014.27 1014.07 1013.74 1013.53 1013.51 1013.26 1013.04 1012.68 1012.44 1012.28 1011.98 1011.65 1011.39 1011.45 1011.56 1011.65 1011.65 1011.60 1011.40 1011.11 1010.96 1010.86 1010.92 1010.98 1011.12 1011.47 1011.83 1012.07
1015.68 1015.27 1015.15 1014.98 1014.77 1014.38 1014.13 1013.91 1013.58 1013.43 1013.18 1012.94 1012.69 1012.45 1012.24 1011.97 1011.68 1011.41 1011.33 1011.44 1011.49 1011.44 1011.32 1011.10 1010.83 1010.58 1010.35 1010.25 1010.33 1010.48 1010.67 1010.93 1011.39
1016.05 1015.61 1015.27 1015.14 1015.01 1014.63 1014.36 1014.10 1013.89 1013.68 1013.59 1013.34 1013.07 1012.57 1012.16 1011.85 1011.58 1011.31 1011.14 1011.14 1011.13 1011.08 1010.97 1010.77 1010.49 1010.14 1009.83 1009.62 1009.59 1009.59 1009.77 1009.94 1010.34
1016.37 1015.86 1015.46 1015.28 1015.16 1014.95 1014.58 1014.33 1013.97 1013.54 1013.23 1012.91 1012.49 1012.06 1011.72 1011.52 1011.31 1011.10 1010.84 1010.70 1010.65 1010.54 1010.39 1010.23 1009.94 1009.61 1009.30 1009.08 1008.70 1008.58 1008.85 1008.51 1008.96
1016.42 1016.09 1015.77 1015.48 1015.42 1015.06 1014.57 1014.28 1013.88 1013.48 1013.05 1012.68 1012.24 1011.70 1011.39 1011.26 1011.04 1010.85 1010.61 1010.32 1010.18 1009.98 1009.83 1009.64 1009.38 1009.07 1008.78 1008.43 1008.01 1007.58 1008.04 1008.38 1008.38
1016.49 1016.22 1015.87 1015.71 1015.46 1015.06 1014.72 1014.46 1014.08 1013.64 1013.18 1012.79 1012.25 1011.74 1011.30 1011.15 1010.88 1010.65 1010.34 1010.08 1009.83 1009.52 1009.21 1009.01 1008.81 1008.50 1008.12 1007.79 1007.53 1007.44 1007.24 1006.10 1006.48
1016.58 1016.29 1015.97 1015.81 1015.49 1015.18 1014.95 1014.67 1014.35 1013.82 1013.32 1012.93 1012.27 1011.71 1011.27 1011.02 1010.76 1010.60 1010.44 1010.25 1009.88 1009.35 1008.70 1008.48 1008.13 1007.81 1007.61 1007.34 1007.06 1006.82 1007.34 1007.63 1008.26
1016.59 1016.29 1015.99 1015.86 1015.60 1015.27 1015.19 1014.91 1014.59 1014.10 1013.47 1013.07 1012.22 1011.86 1011.16 1011.05 1010.84 1010.77 1010.84 1010.75 1010.27 1009.66 1009.12 1008.34 1007.42 1007.14 1007.24 1006.91 1006.42 1006.34 1006.20 1006.47 1007.68
1016.64 1016.37 1016.05 1015.84 1015.68 1015.49 1015.28 1015.02 1014.72 1014.24 1013.74 1013.10 1012.48 1011.42 1010.80 1011.03 1010.84 1010.80 1011.08 1011.08 1010.68 1010.09 1009.99 1009.11 1007.87 1006.94 1007.13 1007.05 1006.14 1005.84 1006.07 1005.50 1005.24
1016.64 1016.44 1016.23 1016.01 1015.79 1015.53 1015.34 1015.23 1015.01 1014.54 1014.08 1013.73 1013.21 1011.97 1010.98 1010.77 1010.87 1010.72 1010.83 1011.03 1010.83 1010.52 1010.30 1009.54 1008.76 1007.99 1007.49 1007.31 1006.52 1005.86 1006.05 1005.67 1006.00
1016.67 1016.57 1016.34 1016.12 1015.95 1015.71 1015.61 1015.42 1015.28 1014.92 1014.57 1014.15 1014.15 1013.20 1012.66 1012.37 1010.87 1010.94 1010.61 1010.49 1010.79 1010.85 1010.71 1010.28 1009.54 1009.03 1008.49 1007.88 1007.24 1006.60 1006.19 1006.08 1005.29
1016.58 1016.55 1016.35 1016.17 1016.03 1015.86 1015.73 1015.49 1015.49 1015.31 1014.81 1014.45 1013.92 1013.88 1013.66 1013.06 1011.92 1011.43 1011.02 1010.50 1010.54 1010.67 1010.78 1010.68 1010.25 1009.60 1009.16 1008.41 1007.89 1007.36 1006.81 1006.60 1005.94
1016.55 1016.54 1016.41 1016.19 1016.01 1015.86 1015.74 1015.61 1015.48 1015.33 1015.14 1014.69 1014.34 1013.90 1013.47 1013.04 1012.87 1011.83 1011.39 1011.02 1010.72 1010.38 1010.77 1010.76 1010.66 1010.14 1009.64 1009.30 1008.73 1008.13 1007.03 1006.72 1006.92
Wind_Speed
10 10 10 10 10 10 10 10 10 10 11 11 11 10 11 7 11 10 11 8 6 9 10 11 11 13 11 12 11 11 11 10 9
9 9 10 10 10 10 10 11 10 9 10 10 10 10 9 8 11 9 8 9 12 11 12 14 13 12 12 13 13 13 12 12 12
9 9 9 9 10 10 10 11 11 11 11 10 11 10 10 10 11 10 8 10 12 14 15 16 15 16 15 15 14 14 14 15 13
8 8 9 10 10 10 10 10 11 12 12 12 12 12 12 10 10 11 6 7 14 16 16 18 18 18 18 17 17 16 17 16 15
1 6 9 10 10 10 10 11 11 12 12 12 11 12 14 12 11 10 7 10 12 16 18 19 20 20 19 18 18 18 17 17 16
9 4 5 7 8 9 9 10 11 12 15 13 8 9 7 10 7 5 9 6 13 15 19 20 22 22 21 20 19 19 19 18 19
5 5 6 8 6 9 6 8 10 11 7 5 9 5 7 7 7 6 8 9 12 16 20 21 22 24 23 22 21 21 21 20 20
4 4 4 5 2 5 6 6 5 8 6 6 7 7 7 6 5 7 8 11 16 19 20 23 24 23 25 26 23 22 22 22 21
5 4 5 5 5 7 7 6 7 8 9 9 9 9 8 6 5 8 7 8 14 18 20 22 24 25 25 24 27 24 24 24 24
6 6 5 5 6 6 7 7 7 8 9 9 10 10 10 10 6 5 9 9 14 18 20 21 22 24 26 25 25 27 26 26 26
6 6 5 5 6 7 7 7 7 6 7 8 9 10 9 9 9 6 7 9 11 16 19 21 22 23 24 25 25 25 30 30 30
6 5 5 5 6 8 7 7 7 7 7 10 8 8 8 7 8 7 6 8 9 11 16 19 20 21 22 24 27 26 21 29 30
6 5 5 6 6 6 6 7 7 7 7 8 8 7 7 7 8 7 7 6 7 8 12 14 18 18 19 19 20 23 21 17 18
6 5 6 7 6 6 6 7 7 7 7 8 8 7 6 5 6 8 10 9 8 8 11 12 14 17 18 19 21 21 17 4 21
6 6 6 6 6 6 6 8 7 8 7 10 8 8 5 3 5 6 8 10 11 11 13 10 8 13 16 17 18 18 9 3 6
7 6 6 6 6 7 7 7 8 7 7 7 7 6 4 1 5 3 4 7 8 9 9 8 8 7 4 3 8 5 9 10 5
7 7 7 7 6 7 7 7 6 6 6 6 7 5 4 4 7 3 2 6 5 7 10 9 10 10 5 7 7 13 12 12 13
7 8 7 7 6 5 6 6 7 6 6 6 3 4 3 8 3 8 4 5 4 5 6 11 11 10 8 8 9 8 1 2 5
6 7 7 7 6 7 6 5 5 6 6 6 3 5 5 3 5 5 11 7 5 4 5 6 8 8 7 10 15 14 6 6 1
6 6 7 7 5 6 6 6 6 5 6 6 6 6 6 7 3 8 8 8 8 3 4 4 3 6 6 7 9 15 18 18 17
Wind_Direction
349 353 349 348 349 347 347 350 352 350 345 336 339 314 299 278 257 251 267 252 248 198 219 233 233 212 226 204 203 203 204 202 201
1 355 348 348 342 338 338 337 338 342 341 337 337 329 332 285 271 267 233 252 228 237 231 234 237 239 225 221 215 209 208 213 213
6 2 359 352 345 343 335 330 327 324 320 322 324 324 326 293 265 263 276 229 243 222 230 233 235 240 236 234 226 218 213 217 215
358 354 2 354 349 345 340 335 330 322 318 314 312 315 314 299 281 273 271 268 234 233 232 237 237 237 237 234 229 227 226 219 218
66 346 15 344 342 338 335 332 327 321 310 297 295 298 297 272 258 256 241 268 281 244 239 241 242 241 240 240 234 225 220 224 218
325 67 329 321 328 325 322 321 318 308 282 254 257 267 267 268 280 285 358 269 268 268 258 252 248 242 240 241 237 229 218 217 223
292 264 240 258 281 277 294 297 289 268 332 329 231 279 318 304 293 284 318 331 305 293 287 282 268 259 251 242 235 229 224 216 219
339 329 349 347 310 342 336 334 349 335 328 314 312 309 309 298 297 294 317 311 297 291 285 285 288 287 264 251 243 230 222 221 218
338 340 341 344 353 343 340 335 332 329 325 328 319 317 314 303 303 298 295 278 283 284 284 282 279 278 277 265 248 238 224 217 216
335 339 341 340 346 348 339 334 333 337 332 325 318 310 305 301 299 294 296 270 273 283 286 285 284 281 276 274 260 242 230 219 213
332 326 344 337 345 342 333 329 325 319 308 312 297 295 296 291 298 300 302 292 276 277 284 286 282 281 279 271 264 254 239 218 208
332 330 328 347 336 327 331 326 325 321 323 316 316 309 306 305 307 312 315 313 302 275 279 282 286 283 276 270 262 274 268 240 216
328 327 333 341 326 329 333 330 328 324 324 321 316 310 307 302 317 325 327 317 324 303 284 280 283 281 279 280 282 279 295 285 256
325 326 327 336 329 324 332 334 329 321 317 318 315 309 302 306 325 328 341 344 323 302 291 265 258 257 260 256 264 270 266 270 252
324 318 321 327 324 326 333 330 326 318 324 322 312 315 291 312 321 10 7 339 342 347 332 314 281 252 255 263 264 268 263 331 220
319 314 312 317 319 322 318 324 326 325 330 318 328 300 298 234 328 23 13 355 354 0 340 325 325 311 335 286 296 203 137 109 35
309 313 310 309 312 313 320 329 328 320 347 335 303 340 309 23 310 354 5 16 2 9 346 341 353 6 23 40 357 120 153 112 148
310 308 304 304 303 303 315 319 324 322 319 344 313 328 327 329 346 323 334 15 28 10 7 346 2 0 356 11 17 11 32 175 119
324 312 305 305 304 300 301 311 319 312 312 321 311 305 273 306 314 320 319 5 342 27 1 1 355 350 347 358 12 15 356 229 337
340 331 319 309 303 298 299 301 299 302 298 305 314 307 299 269 232 305 325 322 333 5 60 351 10 338 353 1 4 11 26 49 61